EHI
0 0 0 0 0 0 0 0 0 0 0 0 0 0 0 1 0 0 0 0 2 6 10 16 20 18 13 8 6 5 5 5 4 2 1 0 0 0 0 0 0 0 0 0 0 0 0 0 0
0 0 0 0 0 0 0 0 0 0 0 0 0 0 1 1 0 0 0 0 4 10 13 17 27 30 24 17 11 7 5 4 3 2 1 0 0 0 0 0 0 0 0 0 0 0 0 0 0
0 0 0 0 0 0 0 0 0 0 0 0 0 1 2 1 0 0 0 1 7 15 16 23 42 50 41 30 21 13 7 5 4 3 1 0 0 0 0 0 0 0 0 0 0 0 0 0 0
0 0 0 0 0 0 0 0 0 0 0 0 0 1 2 1 0 0 1 4 13 21 21 32 56 65 56 43 31 20 12 7 5 4 2 1 0 0 0 0 0 0 0 0 0 0 0 0 0
0 0 0 0 0 0 0 0 0 0 0 0 0 0 1 1 0 1 3 8 22 31 31 41 64 73 65 53 39 27 17 10 6 4 3 2 0 0 0 0 0 0 0 0 0 0 0 0 0
0 0 0 0 0 0 0 0 0 0 0 0 0 0 0 0 1 2 5 12 27 40 43 50 66 73 68 59 46 33 23 14 7 4 3 1 0 0 0 0 0 0 0 0 0 0 0 0 0
0 0 0 0 0 0 0 0 0 0 0 0 0 0 0 1 3 5 7 15 30 45 51 54 60 64 64 57 48 38 27 17 8 4 3 1 0 0 0 0 0 0 0 0 0 0 0 0 0
0 0 0 0 0 0 0 0 0 0 0 0 0 0 3 8 12 13 15 21 33 43 49 52 55 57 55 49 43 36 27 17 9 4 2 1 0 0 0 0 0 0 0 0 0 0 0 0 0
0 0 0 0 0 0 0 0 0 0 0 0 1 4 17 31 34 29 26 27 33 37 39 45 52 55 51 42 35 30 23 16 10 4 1 0 0 0 0 0 0 0 0 0 0 0 0 0 0
0 0 0 0 0 0 0 0 0 0 0 1 4 15 39 60 56 42 33 29 29 29 29 34 44 51 49 40 32 25 19 14 10 6 2 1 0 0 0 0 0 0 0 0 0 0 0 0 1
0 0 0 0 0 0 0 0 0 0 1 2 9 28 58 76 69 49 35 27 23 22 23 27 34 40 41 36 29 24 19 14 11 8 5 3 1 1 1 0 0 0 0 0 0 0 0 1 1
0 0 0 0 0 0 0 0 0 1 3 5 15 38 65 77 70 54 40 31 26 23 24 27 29 31 31 29 25 23 19 14 11 9 7 6 3 1 1 0 0 0 0 0 0 1 1 1 1
0 0 0 0 0 0 0 0 1 3 5 7 19 39 58 66 62 54 47 43 41 36 30 29 30 27 24 22 20 19 17 13 11 9 8 8 6 3 1 0 0 0 0 0 0 1 1 1 0
0 0 0 0 0 0 1 0 1 3 7 10 19 34 46 49 48 47 46 47 49 43 33 28 29 26 23 19 16 14 12 9 8 7 6 7 7 4 1 0 0 0 1 1 1 1 1 1 0
0 0 0 0 0 0 0 0 2 5 10 15 21 30 35 34 34 35 36 38 40 37 30 25 25 25 23 18 14 11 7 4 3 3 4 5 5 4 1 0 0 0 1 2 2 2 2 1 1
0 0 0 0 0 0 0 1 4 10 15 19 23 27 28 28 27 24 23 25 26 26 24 22 22 22 21 17 12 10 6 3 3 3 3 4 3 2 1 0 1 1 1 2 2 2 3 2 1
0 0 0 0 0 0 1 3 6 12 18 20 22 23 24 25 24 20 18 18 18 18 19 19 20 19 17 12 9 9 8 6 7 7 5 5 3 1 1 2 2 2 2 1 1 1 2 2 2
0 0 0 0 0 1 4 6 8 11 14 17 19 19 18 17 17 16 16 15 14 13 14 16 17 18 15 11 8 9 9 9 10 10 8 5 3 2 3 3 2 2 2 0 0 0 1 2 1
0 0 0 0 0 1 4 6 7 7 9 11 13 11 8 6 7 8 9 10 11 10 10 12 13 14 14 13 10 7 7 8 9 9 8 6 4 4 4 2 1 1 1 0 0 0 1 1 0
0 0 0 0 0 1 2 3 3 3 4 5 6 5 3 1 1 2 3 4 6 7 6 7 8 8 9 10 9 6 4 5 6 5 5 5 5 5 4 2 1 0 0 0 0 1 2 1 0
0 0 0 0 0 0 1 1 0 0 2 3 3 4 3 1 0 0 1 2 3 3 3 2 2 3 3 4 4 3 3 3 3 2 1 2 2 3 3 2 1 0 0 0 0 0 1 0 0
0 0 0 0 0 0 0 0 0 1 2 3 3 2 1 0 0 0 0 1 2 2 1 0 0 0 0 0 1 1 2 2 2 1 0 0 0 1 2 1 0 0 0 0 0 0 0 0 0
0 0 0 0 0 0 0 0 0 1 2 3 2 1 0 0 0 0 0 0 1 1 0 0 0 0 0 0 0 0 1 1 1 0 0 0 0 0 0 0 0 0 0 0 0 0 0 0 0
0 0 0 0 0 0 0 0 0 0 1 2 1 0 0 0 0 0 0 0 0 0 0 0 0 0 0 0 0 0 0 0 0 0 0 0 0 0 0 0 0 0 0 0 0 0 0 0 0
0 0 0 0 0 0 0 0 0 0 0 0 0 0 0 0 0 0 0 0 0 0 0 0 0 0 0 0 0 0 0 0 0 0 0 0 0 0 0 0 0 0 0 0 0 0 0 0 0
0 0 0 0 0 0 0 0 0 0 0 0 0 0 0 0 0 0 0 0 0 0 0 0 0 0 0 0 0 0 0 0 0 0 0 0 0 0 0 0 0 0 0 0 0 0 0 0 0
0 0 0 0 0 0 0 0 0 0 0 0 0 0 0 0 0 0 0 0 0 0 0 0 0 0 0 0 0 0 0 0 0 0 0 0 0 0 0 0 0 0 0 0 0 0 0 0 0
0 0 0 0 0 0 0 0 0 0 0 0 0 0 0 0 0 0 0 0 0 0 0 0 0 0 0 0 0 0 0 0 0 0 0 0 0 0 0 0 0 0 0 0 0 0 0 0 0
0 0 0 0 0 0 0 0 0 0 0 0 0 0 0 0 0 0 0 0 0 0 0 0 0 0 0 0 0 0 0 0 0 0 0 0 0 0 0 0 0 0 0 0 0 0 0 0 0
0 0 0 0 0 0 0 0 0 0 0 0 0 0 0 0 0 0 0 0 0 0 0 0 0 0 0 0 0 0 0 0 0 0 0 0 0 0 0 0 0 0 0 0 0 0 0 0 0
Wind_Speed
13 9 4 2 2 1 4 5 3 3 2 1 3 2 4 4 5 4 1 11 16 15 14 17 19 19 18 17 16 15 15 15 15 15 15 14 14 14 13 12 12 11 10 9 9 9 9 9 9
7 6 2 2 2 2 4 4 2 2 2 2 3 3 3 1 1 4 5 8 15 14 12 13 19 19 18 17 16 15 14 14 14 14 14 14 13 13 13 12 11 11 10 9 9 9 9 9 9
6 3 3 2 1 3 5 3 2 1 1 2 3 3 2 1 4 6 5 12 13 12 10 13 21 19 18 17 16 15 14 14 13 13 13 13 12 12 12 12 11 10 10 10 9 9 9 9 8
4 2 3 2 3 5 5 4 2 1 0 2 3 3 2 2 5 6 12 15 14 11 9 12 21 19 18 17 16 15 14 13 13 13 13 12 12 12 11 11 11 10 10 9 9 9 9 8 8
2 3 3 2 6 6 5 3 2 2 1 1 3 3 1 3 7 12 15 15 15 12 9 11 20 19 18 17 16 15 14 14 13 13 13 12 12 12 12 11 11 10 10 9 9 9 8 8 8
3 4 2 3 6 6 4 2 1 1 1 2 4 3 0 2 8 13 14 14 13 13 10 9 19 19 18 17 17 16 15 14 14 13 13 13 12 12 12 11 11 11 10 10 9 9 9 9 8
4 4 2 3 5 6 4 2 1 2 2 3 5 4 1 3 5 11 11 11 11 11 9 7 10 13 17 17 17 16 15 14 14 14 13 13 12 12 12 11 11 11 11 11 10 10 10 10 9
4 4 1 3 4 6 4 3 2 2 3 2 5 6 5 6 9 9 9 8 9 10 9 7 7 7 8 10 15 16 15 15 15 14 14 14 13 13 13 11 11 12 12 12 12 12 11 11 11
4 4 3 4 4 6 4 3 3 1 2 1 2 3 5 14 15 12 9 8 9 11 9 8 7 7 7 7 11 13 15 15 14 12 15 13 6 6 7 11 13 13 13 13 13 13 13 12 11
4 4 8 6 4 5 6 4 3 1 1 1 1 3 11 16 15 14 13 14 13 13 12 9 9 8 7 8 6 5 6 6 7 5 6 5 4 5 8 8 14 15 15 15 15 15 14 11 6
5 6 5 5 6 5 4 4 1 2 4 6 6 8 14 14 13 12 12 12 12 10 11 10 9 8 7 5 4 3 3 3 5 6 6 4 3 4 5 4 6 7 10 8 9 10 7 6 6
3 6 5 5 4 3 4 3 1 3 7 3 5 11 13 15 14 12 11 9 7 7 8 7 7 6 6 5 3 3 4 4 5 6 6 5 4 5 5 4 5 4 4 5 5 4 6 7 8
3 5 4 6 7 6 3 3 2 4 5 2 7 10 11 11 8 5 5 6 6 6 6 6 6 6 5 4 3 4 5 5 5 5 6 7 6 6 6 5 4 5 4 4 5 5 5 6 7
4 5 8 8 6 3 3 1 1 5 2 4 7 7 7 6 6 6 6 6 6 6 6 6 7 6 5 4 4 4 4 4 4 5 7 8 7 6 5 5 5 5 4 4 4 4 4 4 4
3 5 8 5 3 2 2 4 7 8 4 7 8 8 9 7 7 5 4 4 4 4 4 4 5 5 5 5 5 4 4 4 5 5 7 7 7 7 6 5 4 4 3 3 3 3 2 3 3
3 3 5 7 7 4 3 3 11 10 8 9 9 9 10 9 9 6 4 4 3 3 3 3 4 5 5 5 4 3 4 4 4 4 5 7 8 8 6 5 4 3 2 2 2 2 1 2 2
5 3 3 7 8 5 8 5 9 10 10 10 9 9 9 9 10 9 7 4 3 3 3 2 2 3 3 3 2 2 3 3 3 3 4 5 6 6 5 5 4 3 3 2 2 1 2 2 2
2 2 3 3 5 9 9 7 9 10 12 11 10 9 9 10 8 7 7 6 5 4 3 2 2 1 1 1 1 2 2 2 2 2 3 4 3 4 4 4 4 4 3 2 2 2 2 2 2
2 1 3 3 2 7 8 8 9 9 10 11 10 9 9 7 6 6 7 7 6 6 6 5 5 4 2 1 1 1 1 2 1 1 3 3 3 3 3 3 3 3 3 4 3 2 2 2 1
3 2 2 0 3 5 5 7 6 9 9 8 8 8 7 7 7 8 8 8 7 7 6 6 6 5 4 2 0 0 0 1 1 1 1 1 1 2 3 3 3 3 3 3 3 3 2 1 2
2 4 3 3 3 4 3 3 4 5 6 7 7 6 7 7 7 7 7 7 7 7 6 5 5 6 5 4 2 1 2 2 2 3 2 3 2 2 2 3 3 3 4 4 4 4 4 3 2
2 2 3 3 3 1 1 0 2 3 4 5 5 6 6 5 5 5 6 6 6 5 4 5 5 5 4 3 4 4 2 1 1 2 2 3 3 3 2 2 2 3 3 4 4 4 4 4 3
2 3 4 3 3 3 4 2 3 2 2 3 3 3 3 3 4 4 4 4 4 3 3 3 4 4 3 3 4 3 2 0 1 2 3 3 3 3 3 2 2 3 3 4 4 4 5 4 4
3 5 5 5 5 3 2 1 3 2 2 1 1 2 2 2 2 2 2 2 3 2 2 1 2 2 2 2 2 2 1 1 2 2 3 2 2 2 3 3 2 3 3 4 5 5 6 5 5
5 6 5 6 5 3 1 1 4 2 1 1 1 1 1 1 1 1 2 3 3 2 2 1 0 1 1 1 1 0 0 0 1 2 2 2 2 2 3 3 3 3 4 5 4 5 6 6 6
2 6 6 3 4 4 2 1 3 0 1 1 1 1 1 2 3 3 4 4 4 4 3 3 2 2 2 2 2 2 2 2 2 3 2 2 2 3 4 4 4 4 5 5 4 5 6 5 7
3 3 4 6 1 1 3 3 2 2 2 1 1 1 2 3 4 4 4 5 5 5 5 4 4 4 5 4 4 4 4 4 4 4 4 3 4 4 4 4 4 4 4 4 4 4 5 5 6
5 6 5 4 2 2 3 2 3 4 3 2 2 2 4 5 5 5 5 5 5 5 5 5 5 6 6 6 5 5 5 6 5 5 5 6 5 5 5 5 5 5 5 4 4 4 5 5 6
5 5 5 4 3 3 2 3 1 2 2 2 3 3 4 6 6 6 5 5 5 5 5 6 7 7 7 7 7 7 7 6 6 6 7 7 6 6 6 6 5 5 5 5 4 5 5 5 6
4 3 3 3 1 2 2 5 2 1 2 2 4 5 5 6 6 6 6 5 6 6 7 7 8 8 9 8 8 8 8 7 7 8 8 7 7 7 7 6 6 7 6 5 5 6 5 5 6
Wind_Direction
146 141 136 120 87 29 274 262 259 312 343 16 120 137 145 153 178 211 92 143 139 149 159 163 162 158 154 150 148 146 146 145 145 146 148 150 153 155 156 157 159 158 156 154 151 148 144 140 137
145 150 131 98 89 357 288 265 284 279 214 125 81 80 74 79 71 110 128 143 142 148 155 160 163 160 157 154 153 152 152 152 152 153 155 156 158 160 162 163 164 164 163 161 160 158 155 151 148
159 172 118 101 160 223 271 273 266 308 205 130 88 70 93 177 149 156 156 142 140 146 152 164 164 162 160 159 158 158 159 160 161 162 164 164 165 166 168 169 170 171 171 171 171 170 166 164 162
151 85 68 65 261 242 243 268 264 262 61 66 104 89 72 60 156 151 142 144 144 147 152 168 165 165 163 163 164 165 166 168 170 172 173 174 174 175 176 177 179 181 182 183 182 182 179 178 177
87 92 56 330 275 266 256 264 251 259 225 94 113 119 79 22 110 132 144 150 151 151 156 170 167 167 167 167 170 172 174 176 179 181 183 184 185 185 187 188 190 193 195 197 197 197 195 194 193
74 75 75 288 282 285 281 269 261 248 193 135 126 128 115 102 130 146 150 153 155 157 159 167 171 171 171 172 176 179 181 184 186 189 191 193 194 195 197 198 201 204 208 210 210 211 211 211 210
127 122 200 253 284 297 289 309 241 227 209 190 147 134 177 157 154 147 145 145 150 157 159 165 170 173 176 178 181 185 187 190 193 196 198 201 203 205 207 209 212 215 218 221 223 224 225 225 224
150 121 243 267 271 278 289 321 275 212 229 148 138 155 202 177 143 134 128 134 148 160 165 165 165 167 173 181 188 191 194 197 200 203 205 208 211 213 217 218 223 226 228 230 232 233 234 235 235
119 88 231 241 243 269 294 307 301 233 141 153 172 179 173 138 139 136 135 144 161 172 176 172 169 169 170 177 193 195 200 204 206 210 213 214 216 220 227 229 230 235 238 238 239 240 241 242 242
120 168 228 230 226 264 292 272 269 321 231 228 118 100 128 140 152 159 165 170 177 182 184 183 180 177 174 187 190 193 202 205 206 206 216 212 204 217 230 240 241 243 245 245 244 243 243 244 239
169 204 238 257 254 261 279 282 266 166 245 230 204 157 146 154 163 173 178 178 182 182 185 188 190 185 184 189 185 191 200 203 210 210 211 213 211 220 232 234 249 252 253 250 249 246 238 231 228
223 245 241 266 276 276 255 261 245 206 243 248 164 148 156 164 174 179 179 174 166 173 186 182 188 189 195 198 201 199 207 212 217 217 210 209 219 225 228 233 235 237 243 246 244 240 235 231 230
247 266 268 259 276 259 246 240 231 272 279 44 110 135 157 165 166 148 133 139 148 167 175 172 176 184 189 202 221 213 217 225 228 224 217 215 222 229 229 234 236 238 236 238 242 240 239 235 234
261 275 284 282 269 242 191 280 26 299 344 86 106 117 117 117 119 118 127 143 151 162 169 165 171 179 177 195 220 229 225 227 228 227 225 218 221 225 225 231 235 236 231 230 230 235 235 238 236
294 306 314 310 317 290 123 16 1 333 45 76 84 91 89 83 82 90 117 126 137 143 147 152 162 169 181 197 210 224 228 229 228 232 232 224 221 220 221 226 231 232 222 218 218 230 230 241 242
13 9 329 318 349 348 102 37 357 358 66 72 72 74 73 63 58 50 74 97 109 117 140 161 173 176 185 193 207 215 238 227 227 236 237 227 221 218 214 216 225 222 203 196 199 202 211 234 239
24 9 318 323 1 27 71 59 2 14 57 63 63 67 69 61 46 36 40 58 81 109 125 154 159 179 185 185 222 234 241 248 239 230 242 231 223 215 208 213 212 194 179 180 191 176 192 220 241
296 316 319 327 6 54 72 60 22 27 53 58 57 57 58 56 42 31 37 46 57 59 65 56 42 323 171 163 178 249 239 251 251 226 246 239 217 204 203 206 199 178 171 176 179 177 190 212 238
234 248 286 287 82 71 72 64 37 33 47 50 48 48 48 48 40 39 36 41 50 49 53 46 37 11 23 41 59 315 308 277 276 259 239 228 205 204 205 199 188 183 184 187 186 175 187 208 182
204 232 260 293 91 103 96 68 46 38 42 48 50 45 39 38 36 37 36 35 37 38 39 43 35 31 28 35 39 210 271 292 283 297 288 294 234 220 215 196 195 196 195 193 186 180 173 193 170
209 192 210 189 98 87 110 51 24 28 40 47 46 44 42 43 36 31 33 34 41 43 43 54 52 45 31 23 38 32 24 4 3 353 350 352 345 306 258 221 202 202 201 205 205 191 183 192 200
257 240 193 156 123 17 64 230 337 355 17 32 31 28 31 30 32 30 29 25 35 40 44 56 56 57 44 42 55 55 53 28 339 326 333 339 338 313 295 268 236 219 209 216 216 196 189 177 197
200 61 81 89 115 73 29 96 292 339 348 357 14 17 21 23 30 26 16 8 11 23 36 47 56 58 53 61 68 69 59 43 321 333 343 345 333 322 310 276 251 240 224 222 220 203 200 193 191
116 73 59 52 66 47 343 107 276 268 254 284 347 5 4 18 25 10 348 334 335 349 5 23 55 39 27 51 67 85 72 30 4 340 335 333 321 318 327 311 283 262 247 236 225 214 210 207 201
65 74 28 4 9 273 314 130 258 279 287 247 275 297 308 298 273 268 285 292 293 300 305 314 346 324 333 9 12 14 177 182 279 287 307 313 309 300 306 313 296 277 263 254 238 222 220 211 206
61 121 146 206 236 282 348 270 278 326 58 49 56 329 318 293 276 263 263 268 272 273 274 274 269 268 268 259 259 258 246 229 236 242 244 260 267 271 278 283 279 277 270 261 244 234 228 217 215
87 73 139 129 142 310 300 302 323 69 44 35 16 340 304 291 280 275 273 268 264 266 268 265 265 268 267 258 251 251 248 242 243 247 244 246 250 261 270 277 280 279 272 263 248 238 235 223 220
80 129 82 94 129 291 310 322 313 320 316 325 320 302 290 290 287 283 276 273 271 268 273 276 265 261 266 266 259 255 248 245 246 248 251 248 249 251 263 270 273 273 270 264 251 244 238 230 227
17 46 80 95 129 148 286 288 328 287 300 298 294 294 291 292 287 285 285 283 281 281 278 275 272 269 268 264 261 262 260 255 250 247 248 248 249 248 249 253 259 263 262 259 249 245 241 233 236
72 56 110 114 74 120 185 272 329 325 326 317 305 301 299 296 290 286 284 287 288 280 275 271 269 266 264 262 259 258 260 260 256 254 253 249 249 249 246 247 249 254 253 247 244 249 248 240 241